{"data":{"norad_id":64438,"epoch":"2026-05-25T02:19:48.874080Z","epoch_age_seconds":56728,"freshness":"FRESH","line1":"1 64438U 25130A   26145.09709345  .00020305  00000+0  62686-3 0  9991","line2":"2 64438  53.1599  93.4776 0001081 108.5678 251.5441 15.33558002 52405","mean_motion":15.33558002,"eccentricity":0.0001081,"inclination_deg":53.1599,"raan_deg":93.4776,"arg_perigee_deg":108.5678,"mean_anomaly_deg":251.5441,"bstar":0.00062686,"rev_number":5240,"period_min":93.899285069232,"perigee_km":464.46721519095,"apogee_km":465.94674615958,"semimajor_km":6843.3439806753,"source":"CELESTRAK","updated_at":"2026-05-25T13:38:20.445930Z"}}